Fairbanks, AK

12:12 PM AKDT on March 30, 2017 (GMT -0800)
Fairbanks International

Weather History for PAFA - October, 2011

Change the Weather History Date:

Monday, October 3, 2011

  Actual Average Record
Temperature  
Mean Temperature 43 °F 35 °F  
Max Temperature 54 °F 43 °F 63 °F (1950)
Min Temperature 32 °F 27 °F -1 °F (1909)
Degree Days  
Heating Degree Days 22 30  
Month to date heating degree days 69 88  
Since 1 July heating degree days 884 1082  
Cooling Degree Days 0 0  
Month to date cooling degree days 0 0  
Year to date cooling degree days 39 61  
Moisture  
Dew Point 28 °F    
Average Humidity 60    
Maximum Humidity 79    
Minimum Humidity 36    
Precipitation  
Precipitation 0.00 in 0.02 in 0.33 in (1937)
Month to date precipitation T 0.08  
Year to date precipitation 7.81 8.75  
Snow  
Snow 0.00 in 0.20 in 3.10 in (1981)
Month to date snowfall T 0.6  
Since 1 July snowfall T 2.4  
Since 1 September snowfall T 2.4  
Snow Depth 0.00 in    
Sea Level Pressure  
Sea Level Pressure 29.47 in    
Wind  
Wind Speed 2 mph (NE)    
Max Wind Speed 5 mph    
Max Gust Speed -    
Visibility 10 miles    
Events      
T = Trace of Precipitation, MM = Missing Value Source: NWS Daily Summary

Daily Weather History Graph

Daily Weather History Graph

Search for Another Location

Airport or City:

Trip Planner

Search our weather history database for the weather conditions in past years. The results will help you decide how hot, cold, wet, or windy it might be!

Date:

Astronomy

Oct. 03, 2011 Rise Set
Actual Time 8:06 AM AKDT 7:12 PM AKDT
Civil Twilight 7:18 AM AKDT 8:01 PM AKDT
Nautical Twilight 6:20 AM AKDT 8:58 PM AKDT
Astronomical Twilight 5:18 AM AKDT 9:59 PM AKDT
Moon 5:27 PM AKDT (10/3) 10:15 PM AKDT (10/3)
Length of Visible Light 12h 43m
Length of Day
11h 05m
Waxing Crescent, 47% of the Moon is Illuminated
Oct 3
Waxing Crescent
Oct 3
First Quarter
Oct 11
Full
Oct 19
Last Quarter
Oct 26
New

Hourly Weather History & Observations

Time (AKDT) Temp. Windchill Dew Point Humidity Pressure Visibility Wind Dir Wind Speed Gust Speed Precip Events Conditions
12:53 AM 43.0 °F 40.3 °F 25.0 °F 49% 29.42 in 10.0 mi NNE 4.6 mph - N/A   Mostly Cloudy
1:53 AM 39.0 °F - 27.0 °F 62% 29.43 in 10.0 mi Calm Calm - N/A   Mostly Cloudy
2:53 AM 39.9 °F - 26.1 °F 58% 29.42 in 10.0 mi Calm Calm - N/A   Mostly Cloudy
3:53 AM 37.0 °F - 27.0 °F 67% 29.43 in 10.0 mi Calm Calm - N/A   Mostly Cloudy
4:53 AM 42.1 °F 40.2 °F 24.1 °F 49% 29.44 in 10.0 mi East 3.5 mph - N/A   Mostly Cloudy
5:53 AM 35.1 °F - 28.0 °F 76% 29.46 in 10.0 mi Calm Calm - N/A   Mostly Cloudy
6:53 AM 33.1 °F 30.0 °F 26.1 °F 75% 29.47 in 10.0 mi NE 3.5 mph - N/A   Mostly Cloudy
7:53 AM 34.0 °F - 28.0 °F 79% 29.48 in 10.0 mi Calm Calm - N/A   Mostly Cloudy
8:53 AM 33.1 °F - 27.0 °F 78% 29.48 in 10.0 mi Calm Calm - N/A   Mostly Cloudy
9:53 AM 35.1 °F 32.2 °F 26.1 °F 70% 29.49 in 10.0 mi West 3.5 mph - N/A   Mostly Cloudy
10:53 AM 37.0 °F 34.5 °F 28.9 °F 73% 29.50 in 10.0 mi South 3.5 mph - N/A   Mostly Cloudy
11:53 AM 39.9 °F - 28.0 °F 63% 29.49 in 10.0 mi Calm Calm - N/A   Mostly Cloudy
12:53 PM 45.0 °F - 28.9 °F 53% 29.49 in 10.0 mi Calm Calm - N/A   Mostly Cloudy
1:53 PM 46.9 °F - 28.0 °F 48% 29.48 in 10.0 mi Calm Calm - N/A   Mostly Cloudy
2:53 PM 48.9 °F - 27.0 °F 43% 29.48 in 10.0 mi NE 3.5 mph - N/A   Mostly Cloudy
3:53 PM 52.0 °F - 27.0 °F 38% 29.47 in 10.0 mi Calm Calm - N/A   Mostly Cloudy
4:53 PM 52.0 °F - 26.1 °F 37% 29.47 in 10.0 mi Calm Calm - N/A   Mostly Cloudy
5:53 PM 51.1 °F - 25.0 °F 36% 29.47 in 10.0 mi Calm Calm - N/A   Mostly Cloudy
6:53 PM 48.9 °F - 28.9 °F 46% 29.47 in 10.0 mi Calm Calm - N/A   Mostly Cloudy
7:53 PM 44.1 °F - 30.0 °F 58% 29.48 in 10.0 mi Calm Calm - N/A   Mostly Cloudy
8:53 PM 42.1 °F - 30.9 °F 65% 29.49 in 10.0 mi Calm Calm - N/A   Mostly Cloudy
9:53 PM 39.0 °F - 32.0 °F 76% 29.49 in 10.0 mi Calm Calm - N/A   Mostly Cloudy
10:53 PM 37.9 °F 34.4 °F 32.0 °F 79% 29.50 in 10.0 mi NE 4.6 mph - N/A   Mostly Cloudy
11:53 PM 37.0 °F 34.5 °F 28.9 °F 73% 29.51 in 10.0 mi North 3.5 mph - N/A   Mostly Cloudy